Lakeland Region, FL

12:51 AM EDT on May 01, 2017 (GMT -0400)
Lakeland Linder Regional

Weather History for KLAL - January, 2013

Change the Weather History Date:

Friday, January 4, 2013

  Actual Average Record
Temperature  
Mean Temperature 58 °F -  
Max Temperature 60 °F 68 °F 84 °F (2015)
Min Temperature 55 °F 48 °F 30 °F (2012)
Degree Days  
Heating Degree Days 8    
Growing Degree Days 8 (Base 50)    
Moisture  
Dew Point 56 °F    
Average Humidity 93    
Maximum Humidity 100    
Minimum Humidity 88    
Precipitation  
Precipitation 0.00 in - - ()
Sea Level Pressure  
Sea Level Pressure 30.23 in    
Wind  
Wind Speed 8 mph (NNE)    
Max Wind Speed 14 mph    
Max Gust Speed -    
Visibility 9 miles    
Events Rain    
Averages and records for this station are not official NWS values.
T = Trace of Precipitation, MM = Missing Value Source: NWS Daily Summary

Daily Weather History Graph

Daily Weather History Graph

Search for Another Location

Airport or City:

Trip Planner

Search our weather history database for the weather conditions in past years. The results will help you decide how hot, cold, wet, or windy it might be!

Date:

Astronomy

Jan. 04, 2013 Rise Set
Actual Time 7:20 AM EST 5:46 PM EST
Civil Twilight 6:54 AM EST 6:11 PM EST
Nautical Twilight 6:25 AM EST 6:41 PM EST
Astronomical Twilight 5:56 AM EST 7:09 PM EST
Moon No Moon Rise 11:41 AM EST (1/4)
Length of Visible Light 11h 17m
Length of Day
10h 26m
Waning Gibbous, 55% of the Moon is Illuminated
Jan 4
Waning Gibbous
Jan 4
Last Quarter
Jan 11
New
Jan 18
First Quarter
Jan 26
Full

Hourly Weather History & Observations

Time (EST) Temp. Dew Point Humidity Pressure Visibility Wind Dir Wind Speed Gust Speed Precip Events Conditions
12:15 AM 57.2 °F 55.4 °F 94% 30.17 in 7.0 mi NE 8.1 mph - N/A   Light Drizzle
12:35 AM 59.0 °F 57.2 °F 94% 30.16 in 10.0 mi NE 4.6 mph - N/A   Overcast
12:55 AM 59.0 °F 57.2 °F 94% 30.17 in 10.0 mi NNE 8.1 mph - N/A   Overcast
1:15 AM 57.2 °F 55.4 °F 94% 30.16 in 10.0 mi NNE 6.9 mph - N/A   Overcast
1:35 AM 59.0 °F 55.4 °F 88% 30.17 in 10.0 mi North 4.6 mph - N/A Rain Light Rain
1:55 AM 57.2 °F 55.4 °F 94% 30.17 in 10.0 mi North 6.9 mph - N/A Rain Rain
2:15 AM 57.2 °F 55.4 °F 94% 30.17 in 10.0 mi NNE 10.4 mph - N/A   Overcast
2:35 AM 57.2 °F 55.4 °F 94% 30.17 in 10.0 mi NNE 8.1 mph - N/A   Overcast
2:55 AM 57.2 °F 55.4 °F 94% 30.18 in 10.0 mi NNE 13.8 mph - N/A   Overcast
3:15 AM 57.2 °F 55.4 °F 94% 30.18 in 10.0 mi North 10.4 mph - N/A   Overcast
3:35 AM 55.4 °F 55.4 °F 100% 30.18 in 10.0 mi NNE 10.4 mph - N/A   Light Drizzle
3:55 AM 55.4 °F 55.4 °F 100% 30.18 in 10.0 mi NNE 9.2 mph - N/A   Overcast
4:15 AM 55.4 °F 53.6 °F 94% 30.18 in 10.0 mi NNE 9.2 mph - N/A   Overcast
5:50 AM 55.4 °F 53.6 °F 94% 30.19 in 10.0 mi NE 9.2 mph - N/A   Overcast
6:50 AM 55.4 °F 55.4 °F 100% 30.21 in 10.0 mi NNE 6.9 mph - N/A   Overcast
8:55 AM 55.4 °F 53.6 °F 94% 30.26 in 7.0 mi NNE 6.9 mph - N/A   Overcast
9:50 AM 55.4 °F 53.6 °F 94% 30.27 in 10.0 mi NNE 8.1 mph - N/A   Overcast
10:50 AM 57.2 °F 55.4 °F 94% 30.27 in 12.0 mi NNE 4.6 mph - N/A   Overcast
11:55 AM 59.0 °F 55.4 °F 88% 30.26 in 12.0 mi NE 6.9 mph - N/A   Overcast
12:50 PM 60.8 °F 57.2 °F 88% 30.22 in 12.0 mi NE 6.9 mph - N/A   Overcast
1:50 PM 60.8 °F 57.2 °F 88% 30.21 in 12.0 mi NNE 4.6 mph - N/A   Overcast
3:51 PM 60.8 °F 57.2 °F 88% 30.21 in 7.0 mi NNE 10.4 mph - N/A   Overcast
3:53 PM 60.8 °F 57.2 °F 88% 30.21 in 12.0 mi North 5.8 mph - N/A   Overcast
4:50 PM 59.0 °F 57.2 °F 94% 30.24 in 10.0 mi North 5.8 mph - N/A   Overcast
5:50 PM 57.2 °F 57.2 °F 100% 30.26 in 3.0 mi North 6.9 mph - N/A   Overcast
6:50 PM 57.2 °F 57.2 °F 100% 30.26 in 4.0 mi NNE 8.1 mph - N/A   Overcast
7:55 PM 57.2 °F 57.2 °F 100% 30.28 in 4.0 mi North 8.1 mph - N/A   Overcast
8:56 PM 57.2 °F 57.2 °F 100% 30.29 in 4.0 mi NNE 6.9 mph - N/A   Overcast
9:52 PM 59.0 °F 57.2 °F 94% 30.29 in 4.0 mi NNE 8.1 mph - N/A   Overcast
9:55 PM 59.0 °F 55.4 °F 88% 30.29 in 10.0 mi NNE 8.1 mph - N/A   Overcast
10:15 PM 59.0 °F 55.4 °F 88% 30.28 in 10.0 mi NNE 5.8 mph - N/A   Overcast
10:35 PM 59.0 °F 55.4 °F 88% 30.28 in 10.0 mi NE 9.2 mph - N/A   Overcast
10:55 PM 59.0 °F 55.4 °F 88% 30.28 in 10.0 mi North 6.9 mph - N/A   Overcast
11:15 PM 59.0 °F 55.4 °F 88% 30.28 in 10.0 mi NNE 6.9 mph - N/A   Overcast
11:35 PM 59.0 °F 55.4 °F 88% 30.28 in 10.0 mi NNE 5.8 mph - N/A   Overcast
11:55 PM 59.0 °F 55.4 °F 88% 30.28 in 10.0 mi NNE 4.6 mph - N/A   Overcast